[[{"header":{"parameterUnit":"m.s-1","parameterCategory":1,"la1":30.2991,"la2":30.254,"lo1":-89.0895,"lo2":-89.0444,"dy":0.0017,"dx":0.0017,"nx":28,"ny":28,"refTime":"2024-12-08T03:00:00:Z","depth":0,"parameterNumber":2,"parameterNumberName":"U-component_of_WINDS"},"data":[0,0,0,0,0,0,0,0,0,0,0,0,0,0,0,0,0,0,0,0,0,0,0,0,0,0,0,0,0,0,0,0,0,0,0,0,0,0,0,0,0,0,0,0,0,0,0,0,0,0,0,0,0,0,0,0,0,0,-0.1508,-0.1509,0,-0.1614,-0.1615,-0.1617,-0.1696,-0.1697,-0.1697,-0.1698,-0.1808,-0.181,-0.1812,0,0,0,0,0,0,0,0,0,0,0,0,0,-0.1375,-0.1377,-0.1508,-0.1509,-0.1511,-0.1614,-0.1615,-0.1617,-0.1696,-0.1697,-0.1698,-0.1698,-0.1807,-0.181,-0.1812,0,0,0,0,0,0,0,0,0,0,0,0,0,-0.1452,-0.1378,-0.1508,-0.1562,-0.1568,-0.1614,-0.1615,-0.1617,-0.1696,-0.1697,-0.1698,-0.1699,-0.1806,-0.1809,-0.1813,-0.1812,0,0,-0.1823,-0.1825,0,0,0,0,0,0,0,0,-0.1447,-0.1457,-0.1553,-0.1559,-0.1565,-0.1643,-0.1609,-0.1683,-0.1695,-0.1647,-0.1698,-0.1699,-0.1752,-0.176,-0.1778,-0.1818,-0.1822,-0.1823,-0.1825,-0.1827,-0.1828,0,0,0,0,0,0,0,-0.1442,-0.1453,-0.155,-0.1554,-0.1562,-0.1582,-0.1594,-0.1623,-0.1693,-0.1652,-0.1658,-0.1669,-0.1756,-0.1774,-0.1781,-0.1824,-0.1823,-0.1826,-0.1828,-0.183,-0.1869,-0.1868,0,0,0,0,0,0,-0.1428,-0.1448,-0.1547,-0.1553,-0.1508,-0.1584,-0.1597,-0.1617,-0.1692,-0.1705,-0.1668,-0.1672,-0.1768,-0.1777,-0.1785,-0.1789,-0.1827,-0.183,-0.1832,-0.187,-0.1869,-0.1868,0,0,0,0,0,0,-0.1425,-0.1436,-0.1542,-0.1502,-0.1517,-0.1585,-0.1606,-0.1619,-0.1637,-0.1705,-0.1718,-0.1674,-0.1769,-0.178,-0.1805,-0.1794,-0.1832,-0.1835,-0.1871,-0.187,-0.1868,-0.1798,0,0,0,0,0,0,-0.1421,-0.1434,-0.1435,-0.1502,-0.1519,-0.156,-0.1606,-0.162,-0.1643,-0.1649,-0.1714,-0.1726,-0.1771,-0.1799,-0.1808,-0.18,-0.1837,-0.1872,-0.1871,-0.1869,-0.1801,-0.1794,-0.1788,0,0,0,0,0,-0.1416,-0.1411,-0.1434,-0.1446,-0.1521,-0.1559,-0.1569,-0.1621,-0.1641,-0.1642,-0.1686,-0.1724,-0.1794,-0.1801,-0.1812,-0.1804,-0.1873,-0.1871,-0.1869,-0.1805,-0.1796,-0.1788,0,0,0,0,0,0,-0.1341,-0.1421,-0.1447,-0.1464,-0.1504,-0.1572,-0.1575,-0.161,-0.1645,-0.165,-0.1713,-0.1727,-0.1745,-0.1778,-0.1784,-0.1808,-0.1839,-0.1838,-0.1786,-0.1778,-0.1771,-0.1763,-0.184,0,0,0,0,0,-0.1327,-0.1351,-0.1419,-0.1427,-0.1446,-0.1507,-0.1526,-0.1562,-0.1606,-0.1624,-0.1669,-0.1711,-0.1743,-0.1763,-0.1795,-0.1807,-0.1822,-0.1807,-0.18,-0.1794,-0.1793,-0.1801,-0.1795,-0.186,-0.186,-0.1861,0,0,-0.1297,-0.1344,-0.1355,-0.1414,-0.1449,-0.1473,-0.1521,-0.1544,-0.1563,-0.1628,-0.1654,-0.1688,-0.1739,-0.1757,-0.1767,-0.1785,-0.1778,-0.1791,-0.1786,-0.1788,-0.1798,-0.1792,-0.1786,-0.1859,-0.1859,-0.1859,0,0,-0.1256,-0.1293,-0.1304,-0.1338,-0.1391,-0.1432,-0.1434,-0.1497,-0.1523,-0.155,-0.1599,-0.1622,-0.1675,-0.1709,-0.1734,-0.1705,-0.1741,-0.1714,-0.1678,-0.1686,-0.1681,-0.1676,-0.1666,-0.1661,-0.1713,-0.1713,-0.1713,0,-0.1212,-0.125,-0.1305,-0.1325,-0.135,-0.1409,-0.1421,-0.1452,-0.1513,-0.1528,-0.1547,-0.1615,-0.1653,-0.168,-0.1673,-0.1691,-0.1695,-0.1707,-0.1677,-0.1673,-0.167,-0.166,-0.1656,-0.1709,-0.1709,-0.171,-0.171,0,-0.1194,-0.1219,-0.1222,-0.1278,-0.1303,-0.1319,-0.1377,-0.1395,-0.1429,-0.1468,-0.1495,-0.1543,-0.1587,-0.1596,-0.163,-0.1628,-0.1636,-0.1665,-0.1697,-0.1659,-0.1651,-0.1648,-0.1704,-0.1705,-0.1706,-0.1707,0,0,-0.1108,-0.1195,-0.1195,-0.1221,-0.1284,-0.1305,-0.1323,-0.1366,-0.138,-0.142,-0.1437,-0.1481,-0.1508,-0.1535,-0.1574,-0.158,-0.1554,-0.1608,-0.1611,-0.1596,-0.1554,-0.1531,-0.1526,-0.1578,-0.1578,-0.1578,-0.1549,0,-0.1075,-0.1111,-0.1161,-0.1181,-0.1205,-0.1262,-0.1279,-0.1319,-0.1355,-0.1382,-0.1423,-0.1452,-0.1486,-0.1503,-0.1512,-0.1555,-0.1546,-0.1558,-0.1595,-0.1595,-0.1579,-0.1522,-0.1499,-0.147,-0.1547,-0.1546,-0.1546,0,-0.1042,-0.1079,-0.11,-0.116,-0.1173,-0.1186,-0.1229,-0.1253,-0.13,-0.1327,-0.1357,-0.1399,-0.1422,-0.1451,-0.1483,-0.149,-0.1508,-0.1532,-0.1532,-0.1537,-0.1568,-0.1525,-0.1462,-0.1457,-0.1542,-0.1542,-0.1542,0,-0.0977,-0.1031,-0.1051,-0.1072,-0.1143,-0.1151,-0.1181,-0.123,-0.1252,-0.129,-0.1305,-0.1344,-0.1366,-0.1396,-0.1447,-0.1464,-0.1474,-0.1508,-0.1497,-0.1495,-0.1496,-0.1495,-0.1434,-0.1508,-0.1508,-0.1508,-0.1508,0,-0.0935,-0.0946,-0.1022,-0.1034,-0.1048,-0.1106,-0.1119,-0.1154,-0.1196,-0.1217,-0.1269,-0.1287,-0.1354,-0.138,-0.142,-0.1441,-0.145,-0.1472,-0.1483,-0.1467,-0.1464,-0.148,-0.1483,-0.1507,-0.1507,-0.1508,-0.1508,0,-0.0864,-0.0916,-0.0941,-0.1006,-0.1023,-0.103,-0.1086,-0.11,-0.114,-0.1165,-0.1174,-0.1237,-0.127,-0.1324,-0.1374,-0.1401,-0.1414,-0.1432,-0.1397,-0.1404,-0.1389,-0.139,-0.1336,-0.1332,-0.1408,-0.1407,-0.1407,0,-0.0833,-0.0843,-0.0909,-0.0926,-0.0954,-0.0981,-0.1004,-0.1061,-0.1083,-0.1137,-0.1145,-0.1182,-0.1215,-0.1265,-0.1315,-0.1353,-0.1372,-0.1351,-0.1378,-0.1362,-0.1371,-0.137,-0.1371,-0.1344,-0.1343,-0.1342,-0.1341,0,-0.0774,-0.0799,-0.0829,-0.0868,-0.0894,-0.0928,-0.0965,-0.0976,-0.1042,-0.1063,-0.1097,-0.1123,-0.1173,-0.1209,-0.1254,-0.1286,-0.1324,-0.1332,-0.1332,-0.1315,-0.1295,-0.1305,-0.1379,-0.1333,-0.1334,-0.1334,-0.1335,-0.1335,-0.0722,-0.0733,-0.0781,-0.0813,-0.0847,-0.0879,-0.0896,-0.0937,-0.0967,-0.1011,-0.1044,-0.1076,-0.1123,-0.1188,-0.1217,-0.1243,-0.1261,-0.126,-0.1259,-0.1258,-0.1252,-0.1291,-0.1252,-0.1252,-0.1252,-0.1253,-0.1253,0,-0.0665,-0.0698,-0.0727,-0.0776,-0.0802,-0.0835,-0.0878,-0.0897,-0.0924,-0.0964,-0.0995,-0.1035,-0.107,-0.1123,-0.1162,-0.1173,-0.1192,-0.1182,-0.1181,-0.1188,-0.1235,-0.1231,-0.1166,-0.1166,-0.1166,-0.1166,-0.1166,-0.1166,-0.0638,-0.0658,-0.0689,-0.0726,-0.076,-0.0791,-0.0812,-0.0843,-0.0876,-0.0917,-0.0946,-0.098,-0.1026,-0.1069,-0.1103,-0.1118,-0.113,-0.1114,-0.1134,-0.1177,-0.1185,-0.1192,-0.1189,-0.1116,-0.1116,-0.1085,-0.1085,-0.1085]},{"header":{"parameterUnit":"m.s-1","parameterCategory":1,"la1":30.2991,"la2":30.254,"lo1":-89.0895,"lo2":-89.0444,"dy":0.0017,"dx":0.0017,"nx":28,"ny":28,"refTime":"2024-12-08T03:00:00:Z","depth":0,"parameterNumber":3,"parameterNumberName":"V-component_of_WINDS"},"data":[0,0,0,0,0,0,0,0,0,0,0,0,0,0,0,0,0,0,0,0,0,0,0,0,0,0,0,0,0,0,0,0,0,0,0,0,0,0,0,0,0,0,0,0,0,0,0,0,0,0,0,0,0,0,0,0,0,0,6.2864,6.2865,0,6.2948,6.2949,6.295,6.2922,6.292,6.2918,6.2916,6.2998,6.3001,6.3005,0,0,0,0,0,0,0,0,0,0,0,0,0,6.2677,6.2681,6.2864,6.2865,6.2866,6.2948,6.2949,6.295,6.2922,6.292,6.2918,6.2915,6.2996,6.3001,6.3005,0,0,0,0,0,0,0,0,0,0,0,0,0,6.2759,6.2682,6.2864,6.2862,6.2863,6.2947,6.2949,6.295,6.2922,6.292,6.2917,6.2914,6.2995,6.3,6.3006,6.3096,0,0,6.3024,6.3026,0,0,0,0,0,0,0,0,6.2754,6.2766,6.2861,6.2862,6.2863,6.2922,6.2913,6.2999,6.2923,6.29,6.2916,6.2913,6.2974,6.2981,6.3003,6.31,6.3103,6.3024,6.3028,6.303,6.3032,0,0,0,0,0,0,0,6.2749,6.2762,6.2897,6.2863,6.2864,6.2856,6.2865,6.2929,6.2951,6.2901,6.29,6.291,6.2974,6.2997,6.3005,6.3104,6.3024,6.3029,6.3033,6.3035,6.3282,6.3285,0,0,0,0,0,0,6.2743,6.2758,6.2894,6.2899,6.2801,6.2862,6.2871,6.2905,6.295,6.2954,6.2912,6.2909,6.2989,6.2998,6.3007,6.3118,6.303,6.3036,6.3039,6.3279,6.3283,6.3286,0,0,0,0,0,0,6.2739,6.2756,6.2891,6.2828,6.2845,6.2868,6.2906,6.2909,6.2932,6.2959,6.2962,6.2933,6.2987,6.2999,6.3075,6.3121,6.3038,6.3043,6.3276,6.328,6.3285,6.3339,0,0,0,0,0,0,6.2734,6.2754,6.2789,6.2829,6.2848,6.2958,6.2909,6.2912,6.2943,6.2938,6.2978,6.2982,6.2986,6.3067,6.3081,6.3127,6.3048,6.3272,6.3278,6.3283,6.3334,6.3345,6.3355,0,0,0,0,0,6.2727,6.28,6.2791,6.2808,6.2893,6.2961,6.2972,6.2976,6.2946,6.2982,6.2999,6.2981,6.3113,6.3075,6.309,6.3139,6.3269,6.3276,6.3283,6.3329,6.3343,6.3355,0,0,0,0,0,0,6.2762,6.2805,6.2796,6.2883,6.2919,6.2956,6.3001,6.299,6.3034,6.3028,6.303,6.3039,6.3118,6.3135,6.3092,6.323,6.3186,6.3197,6.3216,6.323,6.324,6.3235,6.3053,0,0,0,0,0,6.278,6.2833,6.2867,6.2941,6.296,6.2977,6.3007,6.3008,6.3044,6.3058,6.3081,6.3116,6.3166,6.3198,6.3245,6.3335,6.3345,6.3377,6.3388,6.3396,6.3406,6.3458,6.3473,6.3309,6.3309,6.3309,0,0,6.2817,6.2847,6.288,6.2949,6.2976,6.3031,6.299,6.3049,6.309,6.3066,6.3141,6.3159,6.3198,6.3283,6.3321,6.33,6.3453,6.3405,6.3412,6.3417,6.3467,6.3482,6.3496,6.3314,6.3313,6.3313,0,0,6.2915,6.2942,6.3008,6.3037,6.3081,6.3093,6.3109,6.3148,6.316,6.3235,6.322,6.3267,6.3352,6.3382,6.3408,6.3519,6.3505,6.3534,6.3591,6.3642,6.3655,6.3666,6.3709,6.3723,6.3543,6.3543,6.3543,0,6.2955,6.3039,6.3043,6.3105,6.3136,6.312,6.3187,6.3215,6.327,6.3292,6.3268,6.3377,6.3401,6.3494,6.3522,6.3542,6.3561,6.353,6.3653,6.3664,6.3675,6.3716,6.3731,6.3546,6.3546,6.3546,6.3545,0,6.3088,6.3146,6.3194,6.3252,6.3288,6.3352,6.3366,6.3402,6.3399,6.3413,6.3491,6.3521,6.3575,6.3596,6.3593,6.369,6.3676,6.3652,6.3609,6.3694,6.3733,6.3748,6.3551,6.355,6.3549,6.3548,0,0,6.3209,6.327,6.3288,6.3315,6.3363,6.3408,6.3471,6.3526,6.3558,6.3597,6.3652,6.3725,6.3705,6.3734,6.3734,6.3778,6.3868,6.375,6.3751,6.3773,6.3979,6.3999,6.4017,6.3858,6.3861,6.3863,6.3977,0,6.3312,6.3427,6.3433,6.3537,6.3591,6.3578,6.3633,6.3668,6.3684,6.3732,6.3747,6.3801,6.3768,6.3787,6.383,6.3848,6.391,6.384,6.391,6.3912,6.3903,6.4036,6.4056,6.4162,6.3992,6.3994,6.3996,0,6.3448,6.3495,6.3605,6.3648,6.3671,6.3721,6.3774,6.3819,6.3859,6.3867,6.3902,6.3896,6.3962,6.3915,6.4006,6.3958,6.3987,6.4,6.4004,6.4013,6.3961,6.4051,6.4195,6.4212,6.4019,6.4017,6.4015,0,6.353,6.3619,6.3698,6.3721,6.3772,6.3808,6.383,6.3868,6.3902,6.3947,6.3969,6.402,6.4048,6.4088,6.4097,6.4061,6.4189,6.4142,6.4198,6.4198,6.4227,6.4226,6.4381,6.4241,6.4241,6.4241,6.424,0,6.3646,6.3714,6.3735,6.3784,6.386,6.3867,6.3942,6.3962,6.3996,6.4048,6.4037,6.4086,6.4093,6.4143,6.415,6.4226,6.4238,6.4247,6.4248,6.4249,6.4249,6.427,6.4264,6.4245,6.4244,6.4243,6.4242,0,6.375,6.3767,6.3852,6.3894,6.3907,6.3961,6.3997,6.4044,6.4058,6.4124,6.414,6.4162,6.4221,6.4234,6.4302,6.4307,6.4398,6.4391,6.4386,6.4386,6.4443,6.4439,6.462,6.4645,6.4486,6.4487,6.4489,0,6.3824,6.3877,6.3927,6.3962,6.3987,6.4043,6.4079,6.4087,6.4124,6.4175,6.4215,6.4274,6.4321,6.4416,6.4438,6.4491,6.4487,6.4547,6.4495,6.4495,6.4491,6.4489,6.4496,6.4557,6.4559,6.456,6.4561,0,6.3956,6.3962,6.4014,6.4071,6.4114,6.4157,6.4199,6.4228,6.4242,6.4284,6.4346,6.4383,6.4455,6.4514,6.4568,6.459,6.4579,6.4578,6.4594,6.4597,6.4594,6.4599,6.4416,6.4574,6.4572,6.4572,6.4571,6.457,6.4049,6.4097,6.4141,6.42,6.4232,6.4272,6.4319,6.4341,6.4393,6.4454,6.4455,6.4523,6.4563,6.4635,6.4661,6.4714,6.4695,6.4718,6.4724,6.4731,6.4738,6.4583,6.4723,6.4723,6.4722,6.4722,6.4722,0,6.4183,6.4211,6.4265,6.4326,6.4373,6.4359,6.4405,6.4445,6.4506,6.4545,6.4593,6.4665,6.4722,6.4749,6.4806,6.4844,6.484,6.4859,6.4857,6.4863,6.4749,6.4731,6.4861,6.4861,6.4861,6.4861,6.4861,6.4861,6.4258,6.4339,6.4351,6.4449,6.4475,6.4544,6.4572,6.4609,6.4641,6.4723,6.4771,6.4789,6.4824,6.4884,6.4936,6.4942,6.4965,6.4987,6.4991,6.4885,6.4871,6.4857,6.484,6.4991,6.4991,6.5101,6.5102,6.5102]}]]